{"data":{"norad_id":62954,"epoch":"2026-05-25T00:00:02.000160Z","epoch_age_seconds":68964,"freshness":"FRESH","line1":"1 62954U 25029G   26145.00002315  .00008748  00000+0  26990-3 0  9998","line2":"2 62954  53.1599 235.3497 0001061  84.6755  87.9078 15.34380534  5882","mean_motion":15.34380534,"eccentricity":0.0001061,"inclination_deg":53.1599,"raan_deg":235.3497,"arg_perigee_deg":84.6755,"mean_anomaly_deg":87.9078,"bstar":0.0002699,"rev_number":588,"period_min":93.848948685894,"perigee_km":462.03527858487,"apogee_km":463.48691716123,"semimajor_km":6840.898097873,"source":"CELESTRAK","updated_at":"2026-05-25T13:38:19.825260Z"}}